Showing default

ASTROCAST-0402, 55109

Orbit data source: Space-Track

ASTROCAST-0402, 55109 is a payload satellite owned by Astrocast (CH) in SSO that was launched on Tue, 03 Jan 2023 UTC via an FALCON 9 launch vehicle from the Air Force Eastern Test Range (AFETR). Payload-class satellites include a variety of spacecraft equipped with specific instruments for various scientific and technological missions. These include communications satellites like Starlink; space stations such as the ISS; scientific satellites like the Hubble; Earth observation satellites from companies like Planet Labs, Umbra, and HawkEye 360; GPS; miniature CubeSats for education and research; and military/defense satellites.

Loading next visibility...
Identifier
55109, 2023-001DE
Orbit
SSO
Country
Flag of UnknownUnknown / SWTZ
Related business
Manufacturer
Astrocast
Mission
Operational Commercial Communications
Bus & Motor
CUBESAT 3U, Unknown motor
Mass
4.5 kg wet, 4.5 kg dry
Launch date (UTC)
2023-01-03 (3 years ago)
Launch vehicle
FALCON 9
Launch site
Air Force Eastern Test Range (AFETR)
Object type
Payload
Rocket body
Debris
Shape & HBR
Box, 0.1 m
Radar Cross Section
0.035 m², Medium (>0.1 m² and < 1m²)

Expand to show TLE details & history
Last TLE update: 11 hours ago

TLE from 11 hours ago
0 ASTROCAST-0402
1 55109U 23001DE  25345.20221671  .00011097  00000-0  45082-3 0  9996
2 55109  97.5667  71.0939 0005586 169.2083 190.9275 15.24732252115850
Epoch: 2025-12-11T04:51Z
TLE epoch observation values (Epoch: 2025-12-11T04:51:11.523Z)
Latitude
-0.00005°
Longitude
-81.86568°
Altitude
498.45 km
Speed
7.613 km/s
True Right ascension
04h 44m 22s
True Declination
0° 00' 00"
Sunlit
Object was in full shadow at epoch
Visualization orbit readout
Latitude
Unknown
Longitude
Unknown
Altitude
Unknown
Speed
Unknown
Apparent Right ascension
Unknown
Apparent Declination
Unknown
Sunlit
N/A
Visualization observer readout
Local Sidereal Time
13:51:48
Azimuth
Unknown
Elevation
Unknown
Doppler factor
Unknown
Orbital elements
Apogee altitude
492.392 km
Perigee altitude
484.72 km
Semi-major axis
6,866.693 km
Eccentricity
0.00056
Inclination
97.5667°
RAAN
71.0939°
Arg. of periapsis
169.2083°
True anomaly
190.91537°
Mean anomaly
190.9275°
Eccentric anomaly
190.92144°
Mean motion
3.81436 °/min
Orbital period
94.38 mins
BSTAR
0.00045082
Loading maneuver chart data...
Computing Atmospheric mass density...

Documentation

Showing up to 5 results
|